Погода в Кустуре

Россия / Республика Саха (Якутия)     68°10′19″N   131°40′36″E
темп.,
°C
ветер,
м/с
пор.,
м/с
влажн.,
%
обл.,
%
осадки,
мм/ч
давл.,
гПа
погр.,
м
27 февраля, сб
сб2700:00−33ююв1198100 0.0 103219
03:00−33юв1198100 0.0 103119
06:00−35ююв119999 0.0 103219
09:00−32ю119698 0.0 103225
12:00−32ююв129441 0.0 1031133
15:00−31юв119544 0.0 103020
18:00−36ю0110015 0.0 103019
21:00−37ююз001007 0.0 102919
28 февраля, вс
вс2800:00−37зюз0110011 0.0 102819
03:00−38юз111006 0.0 102719
06:00−38юз111000 0.0 102619
09:00−36юз0110023 0.0 102519
12:00−31ююз119455 0.0 102588
15:00−31ююв119635 0.0 102327
18:00−36ююв001001 0.0 102519
21:00−37з001001 0.0 102519
1 марта, пн
пн100:00−37юз001000 0.0 102419
03:00−37ю0110013 0.0 102419
06:00−37сз0010074 0.0 102419
09:00−36ююв009954 0.0 102519
12:00−32вюв119320 0.0 1024120
15:00−32вюв119443 0.0 102451
18:00−37всв0010068 0.0 102519
21:00−38ссв1110073 0.0 102519
2 марта, вт
вт200:00−38ссз0110086 0.0 102619
03:00−37с119892 0.0 102519
06:00−34св1197100 0.0 102624
09:00−33ююв1197100 0.1 102666
12:00−32вюв119288 0.0 1026197
15:00−32вюв119491 0.0 102755
18:00−37св0010026 0.0 102819
21:00−38ссз1110013 0.0 102819
3 марта, ср
ср300:00−38ссз11991 0.0 102819
03:00−38ссз119722 0.0 102819
06:00−37сз119382 0.0 102719
09:00−33ссз229091 0.0 102684
12:00−30с2489100 0.0 1024280
15:00−31с3591100 0.0 1022288
18:00−34ссз3495100 0.0 102292
21:00−37ссз3495100 0.0 102199